DateTimeUTC,F1_A11,F1_S11,BsB_S11,BsG_S11,BsR_S11,BbsB_S11,BbsG_S11,BbsR_S11,BaB_A11,BaG_A11,BaR_A11,Tu_S11,T_S11,Uu_S11,U_S11,P_S11,T1_A11
2021-12-02T14:00:00Z,00000200,21000000,,,,,,,0000.19,0000.06,0000.16,19.1,26.2,,00.0,0623.3,30.9
2021-12-02T14:01:00Z,00000200,21000000,,,,,,,0000.05,0000.14,0000.04,19.1,26.2,,00.0,0623.3,30.9
2021-12-02T14:02:00Z,00000200,21000000,,,,,,,0000.11,0000.09,-000.18,19.0,26.1,,00.0,0623.3,30.9
2021-12-02T14:03:00Z,00000200,61000000,,,,,,,0000.03,0000.16,0000.43,19.0,26.1,,00.0,0623.3,30.9
2021-12-02T14:04:00Z,00000200,41000000,0000.83,-000.11,0000.01,0000.51,-000.09,-000.06,0000.08,-000.11,-000.36,19.2,26.0,,00.0,0624.1,30.9
2021-12-02T14:05:00Z,00000200,01000000,-000.46,-000.08,-000.04,0000.18,-000.18,0000.09,0000.14,0000.25,0000.36,19.3,25.9,,00.0,0624.2,30.9
2021-12-02T14:06:00Z,00000200,01000000,0000.45,0000.11,0000.10,0000.02,0000.12,0000.13,0000.29,0000.06,0000.31,19.4,25.9,,00.0,0624.3,30.9
2021-12-02T14:07:00Z,00000200,01000000,-000.36,0000.02,0000.02,-000.53,-000.09,-000.08,0000.17,0000.23,-000.10,19.5,26.0,,00.0,0624.3,31.0
2021-12-02T14:08:00Z,00000200,01000000,-000.15,-000.07,-000.19,-000.47,0000.17,-000.13,-000.05,0000.08,0000.46,19.6,26.0,,00.0,0624.3,31.0
2021-12-02T14:09:00Z,00000200,01000000,0000.23,0000.04,-000.05,0000.06,0000.08,0000.01,0000.24,-000.07,-000.14,19.7,26.0,,00.0,0624.3,31.0
2021-12-02T14:10:00Z,00000200,01000000,0000.43,0000.19,0000.20,-001.06,0000.15,0000.46,0000.17,0000.35,-000.08,19.7,26.1,,00.0,0624.4,31.0
2021-12-02T14:11:00Z,00000200,01000000,0000.98,-000.03,0000.48,0000.54,0000.20,0000.26,-000.09,-000.23,0000.36,19.8,26.1,,00.0,0624.4,31.0
2021-12-02T14:12:00Z,00000200,01000000,0000.10,-000.26,0000.18,-000.17,-000.09,0000.05,0000.02,0000.13,-000.29,19.8,26.2,,00.0,0624.4,31.0
2021-12-02T14:13:00Z,00000200,01000000,-000.11,-000.19,0000.43,-000.13,0000.13,-000.02,0000.08,-000.12,0000.26,19.8,26.1,,00.0,0624.5,31.0
2021-12-02T14:14:00Z,00000200,01000000,0000.02,0000.18,0000.51,-000.58,0000.04,-000.01,0000.12,0000.19,-000.10,19.8,26.2,,00.0,0624.5,31.0
2021-12-02T14:15:00Z,00000200,01000000,0000.77,0000.30,0000.03,0000.18,-000.22,0000.18,-000.03,0000.14,-000.37,19.7,26.2,,00.0,0624.5,31.0
2021-12-02T14:16:00Z,00000200,01000000,0000.48,-000.32,-000.03,0000.41,-000.04,0000.13,0000.22,0000.21,0000.87,19.7,26.1,,00.0,0624.4,30.9
2021-12-02T14:17:00Z,00000200,01000000,-000.16,-000.19,-000.06,0000.15,0000.02,0000.11,0000.23,-000.11,-000.08,19.6,26.1,,00.0,0624.5,30.9
2021-12-02T14:18:00Z,00000200,01000000,0000.44,0000.24,0000.31,-000.08,0000.05,0000.23,0000.15,0000.33,-000.05,19.6,26.1,,00.0,0624.4,30.9
2021-12-02T14:19:00Z,00000200,01000000,0001.12,0000.01,0000.18,-000.01,0000.08,0000.10,0005.88,0004.94,0003.78,19.7,26.1,,00.0,0624.5,31.0
2021-12-02T14:20:00Z,00000200,01000000,0000.81,0000.30,0000.46,-000.18,0000.33,0000.21,0011.22,0010.65,0008.22,19.8,26.1,,00.0,0624.5,31.0
2021-12-02T14:21:00Z,00000200,01000000,0000.20,0000.55,0000.56,0000.01,0000.17,0000.27,0006.19,0005.93,0004.56,19.8,26.1,,00.0,0624.5,31.0
2021-12-02T14:22:00Z,00000200,01000000,0000.57,0000.38,0000.22,-000.61,0000.20,-000.06,0000.92,0000.84,0001.00,19.9,26.2,,00.0,0624.5,31.0
2021-12-02T14:23:00Z,00000200,01000000,0000.69,-000.12,0000.04,0000.50,-000.04,0000.27,0000.25,0000.10,0000.16,20.0,26.2,,00.0,0624.5,31.0
2021-12-02T14:24:00Z,00000200,01000000,-000.15,0000.24,0000.22,-000.48,0000.11,0000.20,0000.45,0000.18,-000.00,20.0,26.3,,00.0,0624.5,31.0
2021-12-02T14:25:00Z,00000200,01000000,-000.12,0000.10,0000.19,-000.12,-000.10,0000.25,-000.33,0000.03,0000.28,20.1,26.3,,00.0,0624.5,31.0
2021-12-02T14:26:00Z,00000200,01000000,0000.77,0000.06,0000.38,0000.03,0000.03,0000.05,0000.16,0000.03,-000.07,20.0,26.3,,00.0,0624.5,31.0
2021-12-02T14:27:00Z,00000200,01000000,-000.33,-000.38,-000.16,-000.16,-000.09,-000.15,-000.01,0000.13,-000.21,20.0,26.3,,00.0,0624.4,31.0
2021-12-02T14:28:00Z,00000200,01000000,0000.25,0000.10,0000.05,0000.89,-000.01,0000.17,-000.05,0000.25,0000.45,19.9,26.3,,00.0,0624.5,31.0
2021-12-02T14:29:00Z,00000200,01000000,0000.39,0000.15,0000.36,-000.03,-000.17,0000.01,0000.03,-000.08,-000.24,19.8,26.2,,00.0,0624.5,31.0
2021-12-02T14:30:00Z,00000200,01000000,0000.78,-000.05,0000.17,-000.09,-000.09,0000.29,0000.52,0000.08,0000.12,19.8,26.2,,00.0,0624.4,31.0
2021-12-02T14:31:00Z,00000200,01000000,0000.62,0000.02,-000.02,-000.54,-000.27,0000.01,-000.23,-000.06,-000.07,19.7,26.2,,00.0,0624.4,30.9
2021-12-02T14:32:00Z,00000200,01000000,-000.07,0000.46,0000.08,-000.32,-000.12,-000.07,0000.39,0000.57,0000.32,19.7,26.2,,00.0,0624.5,30.9
2021-12-02T14:33:00Z,00000200,01000000,-000.18,0000.12,0000.05,-000.31,0000.60,0000.16,0000.01,-000.19,-000.11,19.7,26.2,,00.0,0624.4,30.9
2021-12-02T14:34:00Z,00000200,01000000,0000.04,0000.05,0000.16,0000.10,-000.05,0000.03,0000.23,0000.34,0000.36,19.7,26.2,,00.0,0624.4,31.0
2021-12-02T14:35:00Z,00000200,01000000,0000.01,-000.12,-000.08,0000.51,0000.00,0000.07,0000.29,-000.23,-000.01,19.8,26.2,,00.0,0624.5,31.0
2021-12-02T14:36:00Z,00000200,01000000,0000.63,-000.05,0000.17,0000.14,0000.18,0000.03,0000.15,0000.27,0000.21,19.9,26.2,,00.0,0624.5,31.0
2021-12-02T14:37:00Z,00000200,01000000,0000.15,0000.18,0000.26,0000.34,0000.14,0000.24,-000.18,-000.07,-000.14,19.9,26.2,,00.0,0624.5,31.0
2021-12-02T14:38:00Z,00000200,01000000,0000.47,0000.14,0000.21,0000.46,-000.08,0000.19,0000.55,0000.19,0000.24,20.0,26.3,,00.0,0624.5,31.0
2021-12-02T14:39:00Z,00000200,01000000,0000.03,0000.30,0000.25,-000.13,0000.05,0000.07,-000.39,-000.03,0000.17,20.0,26.3,,00.0,0624.5,31.0
2021-12-02T14:40:00Z,00000200,01000000,-000.11,-000.10,0000.16,0000.27,-000.10,0000.17,0000.28,0000.13,-000.13,20.0,26.3,,00.0,0624.5,31.0
2021-12-02T14:41:00Z,00000200,01000000,0000.65,0000.10,0000.35,0000.23,0000.29,0000.20,-000.07,0000.06,0000.19,19.9,26.3,,00.0,0624.5,31.0
2021-12-02T14:42:00Z,00000200,01000000,0000.54,0000.07,-000.07,0000.38,-000.04,0000.05,0000.26,0000.34,-000.11,19.9,26.3,,00.0,0624.5,31.0
2021-12-02T14:43:00Z,00000200,01000000,-000.51,-000.03,-000.04,-000.30,0000.35,0000.45,-000.08,-000.03,0000.10,19.8,26.3,,00.0,0624.4,31.0
2021-12-02T14:44:00Z,00000200,01000000,-000.54,-000.13,0000.23,0000.28,-000.02,0000.40,0000.11,0000.36,0000.45,19.8,26.2,,00.0,0624.5,30.9
2021-12-02T14:45:00Z,00000200,01000000,0001.94,0001.08,0000.98,0000.35,0000.39,0000.52,0017.04,0015.56,0012.39,19.7,26.2,,00.0,0624.4,30.9
2021-12-02T14:46:00Z,00000200,01000000,0002.01,0001.32,0000.78,0000.32,0000.47,0000.31,0024.86,0023.13,0018.37,19.7,26.1,,00.0,0624.4,30.9
2021-12-02T14:47:00Z,00000200,01000000,-000.30,-000.17,0000.17,0000.57,0000.23,0000.24,0001.80,0001.40,0001.32,19.6,26.1,,00.0,0624.4,30.9
2021-12-02T14:48:00Z,00000200,01000000,0000.70,0000.03,-000.10,0000.55,-000.14,-000.17,0000.01,0000.02,-000.01,19.7,26.1,,00.0,0624.4,30.9
2021-12-02T14:49:00Z,00000200,01000000,0000.56,-000.01,0000.02,-000.14,0000.08,0000.21,0000.43,0000.71,0000.34,19.7,26.1,,00.0,0624.4,30.9
2021-12-02T14:50:00Z,00000200,01000000,0000.14,-000.29,0000.15,0000.22,-000.29,0000.33,0000.31,-000.10,0000.24,19.8,26.1,,00.0,0624.4,30.9
2021-12-02T14:51:00Z,00000200,01000000,0000.29,0000.05,0000.09,0000.34,0000.35,0000.32,0000.18,0000.26,-000.09,19.8,26.2,,00.0,0624.4,31.0
2021-12-02T14:52:00Z,00000200,01000000,0000.24,0000.29,-000.20,-000.47,-000.22,0000.00,0000.05,-000.05,0000.26,19.9,26.2,,00.0,0624.5,31.0
2021-12-02T14:53:00Z,00000200,01000000,0000.09,-000.14,-000.05,-000.15,-000.09,-000.03,0000.22,0000.25,0000.13,20.0,26.2,,00.0,0624.5,31.0
2021-12-02T14:54:00Z,00000200,01000000,0000.07,-000.14,0000.09,-000.72,0000.00,-000.02,0000.03,-000.12,0000.02,20.0,26.3,,00.0,0624.5,31.0
2021-12-02T14:55:00Z,00000200,01000000,0000.34,0000.14,-000.14,-000.29,0000.26,0000.12,-000.04,0000.30,0000.08,20.0,26.3,,00.0,0624.5,31.0
2021-12-02T14:56:00Z,00000200,01000000,-000.51,0000.34,0000.21,0000.12,-000.23,-000.07,0000.32,0000.04,0000.31,20.0,26.3,,00.0,0624.5,31.0
2021-12-02T14:57:00Z,00000200,41000000,,,,,,,-000.12,0000.08,-000.29,20.0,26.4,,00.0,0624.6,31.0
2021-12-02T14:58:00Z,00000200,61000000,,,,,,,0000.29,-000.18,0000.05,19.6,26.4,,00.0,0623.6,30.9
2021-12-02T14:59:00Z,00000200,21000000,,,,,,,-000.12,0000.34,0000.04,19.6,26.5,,00.0,0623.5,30.9
